This is the latest recevied weather packets stored in our database for station/object KO4LCK. If no packets are shown the sender has not sent any weather packets the latest 10 day(s).
| Time | Temp. | Humidity | Pressure | Rain* | Wind** | Luminosity | Snow |
|---|---|---|---|---|---|---|---|
| 1777822976 | 17.22° C | 49% | 1022.5 hPa | 0 mm | - | 709 W/m² | - |
| 1777822674 | 17.78° C | 49% | 1022.5 hPa | 0 mm | - | 699 W/m² | - |
| 1777822372 | 17.22° C | 51% | 1022.4 hPa | 0 mm | - | 689 W/m² | - |
| 1777822069 | 16.67° C | 55% | 1022.6 hPa | 0 mm | - | 681 W/m² | - |
| 1777821767 | 17.78° C | 51% | 1022.6 hPa | 0 mm | - | 668 W/m² | - |
| 1777821464 | 17.22° C | 50% | 1022.7 hPa | 0 mm | - | 655 W/m² | - |
| 1777821162 | 16.67° C | 51% | 1022.7 hPa | 0 mm | - | 641 W/m² | - |
| 1777820858 | 16.67° C | 51% | 1022.9 hPa | 0 mm | - | 640 W/m² | - |
| 1777820554 | 16.67° C | 53% | 1022.8 hPa | 0 mm | - | 634 W/m² | - |
| 1777820251 | 16.67° C | 54% | 1022.7 hPa | 0 mm | - | 624 W/m² | - |
| 1777819949 | 15.56° C | 58% | 1022.8 hPa | 0 mm | - | 611 W/m² | - |
| 1777819646 | 15.56° C | 60% | 1022.9 hPa | 0 mm | - | 130 W/m² | - |
| 1777819344 | 16.11° C | 56% | 1022.8 hPa | 0 mm | - | 559 W/m² | - |
| 1777819040 | 15.56° C | 57% | 1022.7 hPa | 0 mm | - | 545 W/m² | - |
| 1777818738 | 15.56° C | 60% | 1022.7 hPa | 0 mm | - | 528 W/m² | - |
| 1777818434 | 15.56° C | 59% | 1022.6 hPa | 0 mm | - | 516 W/m² | - |
| 1777818131 | 15° C | 60% | 1022.5 hPa | 0 mm | - | 500 W/m² | - |
| 1777817827 | 15° C | 61% | 1022.4 hPa | 0 mm | - | 486 W/m² | - |
| 1777817525 | 14.44° C | 66% | 1022.4 hPa | 0 mm | - | 468 W/m² | - |
| 1777817221 | 14.44° C | 65% | 1022.4 hPa | 0 mm | - | 452 W/m² | - |
| 1777816919 | 13.89° C | 68% | 1022.7 hPa | 0 mm | - | 439 W/m² | - |
| 1777816615 | 13.33° C | 64% | 1022.6 hPa | 0 mm | - | 425 W/m² | - |
| 1777816312 | 13.33° C | 65% | 1022.6 hPa | 0 mm | - | 410 W/m² | - |
| 1777816010 | 12.78° C | 69% | 1022.4 hPa | 0 mm | - | 393 W/m² | - |
| 1777815707 | 12.78° C | 66% | 1022.5 hPa | 0 mm | - | 381 W/m² | - |
* Rain latest hour (hover to see other rain measurements)
** Current wind speed in m/s (hover to see current wind gust speed)